Theta_e
325 325 325 325 325 325 325 325 325 325 324 324 325 325 325 325 325 325 324 325 325 324 324 324 324 323 323 322 322 321 322 322 321 322 322 322 322 322 322 322 321 321
325 325 325 325 325 325 325 325 325 325 325 325 325 325 325 325 324 324 324 324 324 324 324 324 324 323 323 323 322 322 322 322 322 322 322 321 322 321 321 321 321 321
325 325 325 325 325 325 325 325 325 325 325 325 325 325 325 325 324 324 324 324 324 324 324 324 324 323 323 323 323 322 322 322 322 322 322 321 321 321 321 321 321 321
325 325 325 325 325 325 325 325 325 325 325 325 325 325 325 325 324 324 324 323 323 323 323 323 323 323 323 323 322 322 322 322 322 322 322 321 321 321 321 321 321 321
326 326 326 326 326 325 325 325 325 325 325 325 325 325 325 325 324 324 324 323 323 323 323 323 323 323 323 322 322 322 322 322 322 322 321 321 321 321 321 321 321 321
326 326 326 326 326 325 325 325 325 325 325 325 325 325 325 324 324 324 323 323 323 323 323 323 323 323 322 322 322 322 322 322 322 322 321 321 321 321 321 322 321 321
325 325 326 326 325 325 325 325 325 325 325 325 324 324 325 324 324 324 324 323 323 323 323 323 322 322 322 322 322 322 322 322 322 322 322 322 322 322 322 322 322 322
324 325 325 326 326 326 325 325 325 325 325 324 324 324 324 324 324 324 323 323 323 323 323 323 323 323 323 322 322 322 322 322 323 322 322 323 322 323 323 323 323 323
322 323 324 325 326 326 326 326 325 325 325 324 324 324 324 324 324 324 324 323 323 323 323 323 323 323 323 323 323 323 323 323 323 323 323 323 323 324 324 324 324 323
320 321 323 324 325 325 325 326 326 326 326 325 325 325 324 324 324 324 324 323 323 324 324 324 324 324 324 324 324 324 324 324 324 324 324 324 324 324 325 325 324 324
317 318 321 322 323 324 324 325 325 325 326 326 325 325 325 325 325 324 324 324 324 324 324 325 324 325 325 325 325 325 325 325 325 325 325 325 325 325 325 325 324 324
314 315 317 319 321 322 323 324 324 324 325 325 325 325 325 325 325 325 325 325 325 325 325 325 325 325 325 325 325 325 325 325 325 325 325 325 325 325 326 325 325 325
311 312 313 314 316 319 321 322 323 323 323 324 325 325 324 324 324 325 325 325 325 325 325 325 325 325 325 325 325 325 325 325 325 325 325 325 325 325 325 325 325 325
310 310 310 311 312 315 318 320 321 322 322 322 323 323 324 324 324 324 324 324 324 325 325 325 325 325 325 325 325 325 325 325 325 325 324 324 325 324 325 325 325 325
309 309 309 309 311 312 314 317 319 320 320 321 321 322 322 323 323 323 323 323 324 324 324 324 324 325 325 325 325 325 325 325 324 324 324 324 324 324 324 324 324 324
308 307 307 308 309 309 311 312 315 317 318 318 319 320 321 321 321 322 322 322 323 323 323 324 324 324 325 325 325 325 325 325 324 324 324 323 323 323 323 323 323 323
308 306 306 307 307 307 308 309 311 314 315 316 317 318 319 319 320 320 321 321 322 322 323 323 323 324 324 324 324 325 325 325 324 324 323 324 323 323 323 323 323 323
307 306 306 307 307 307 307 307 308 310 311 313 314 315 316 317 318 319 319 320 320 321 321 322 323 323 324 324 324 324 324 324 323 323 323 323 322 322 322 322 322 322
306 305 306 307 307 306 306 306 307 308 309 310 311 312 313 314 315 315 316 316 317 319 320 321 322 321 322 323 323 323 324 323 322 322 322 322 322 322 321 321 322 321
305 305 307 307 307 306 306 306 306 307 308 308 309 309 310 311 311 312 312 313 315 317 318 319 319 320 320 322 322 322 322 322 321 321 321 320 321 321 321 321 321 319
305 305 306 306 306 305 305 305 306 306 306 307 307 308 308 309 310 311 311 313 313 315 317 317 317 318 320 320 320 319 320 320 320 320 320 319 320 320 320 320 320 319
306 305 305 305 304 302 302 304 305 305 304 305 306 307 308 309 310 310 312 313 314 315 316 316 317 317 317 318 318 318 318 319 319 319 319 318 318 318 317 318 318 317
307 305 304 304 302 300 301 304 304 303 303 303 304 306 307 308 309 310 311 312 313 314 315 316 317 316 317 318 318 318 318 318 317 317 316 316 316 316 315 316 316 315
306 304 304 303 302 302 303 303 303 303 302 302 303 303 305 306 306 308 309 310 311 312 313 315 316 316 317 318 318 317 316 315 315 315 314 314 314 314 315 315 315 314
305 304 303 303 303 304 304 303 303 303 302 301 301 302 303 303 303 304 305 306 307 308 310 312 314 314 315 316 316 316 315 314 314 313 313 313 312 312 312 313 313 312
304 304 303 303 304 304 304 303 302 302 301 301 301 301 301 301 302 302 303 304 305 306 308 310 311 312 313 313 313 313 314 313 313 312 312 311 310 310 310 311 311 310
Wind_Speed
42 41 41 41 41 42 41 40 39 39 39 39 39 40 41 40 39 38 37 38 38 38 38 38 37 37 37 36 35 35 37 38 38 37 35 36 38 37 38 38 37 36
41 41 40 39 40 41 41 40 39 39 39 39 40 41 40 38 36 36 36 36 36 37 37 37 37 36 36 36 36 36 37 38 38 36 34 36 37 37 38 38 36 36
40 40 40 40 41 42 41 40 38 38 38 39 39 39 38 37 36 35 35 35 35 35 35 35 36 36 36 36 36 36 37 37 38 37 35 36 37 37 37 36 35 34
39 40 41 42 43 42 40 38 38 38 38 38 39 39 38 37 36 35 34 34 34 34 34 34 35 35 35 36 35 36 37 37 37 36 35 35 36 36 35 34 33 34
39 40 41 42 42 41 39 37 38 39 39 40 40 38 38 37 36 35 35 34 34 34 34 34 34 35 35 35 35 36 36 37 37 35 34 35 35 35 35 34 33 34
38 39 40 40 40 39 38 38 40 40 40 40 39 38 38 37 37 36 36 35 34 34 34 34 34 34 34 34 35 35 36 36 36 35 34 35 35 34 34 34 34 34
36 36 36 37 37 37 37 39 40 40 40 39 38 38 38 38 38 37 36 36 35 34 34 34 34 34 34 34 34 35 35 35 35 35 35 35 35 34 34 34 35 35
34 34 34 34 35 36 38 39 40 40 39 38 38 39 39 38 38 38 37 36 35 35 35 34 34 34 34 34 34 35 35 35 35 35 35 36 35 35 35 34 35 36
32 33 34 34 35 36 38 39 39 39 38 37 38 39 38 38 38 37 36 35 35 35 34 34 34 34 34 34 35 35 35 35 35 36 36 36 36 35 35 35 36 36
31 33 34 34 36 37 38 38 38 38 37 37 37 37 37 37 37 36 35 35 34 34 34 34 34 34 34 35 35 35 35 35 36 36 36 36 37 36 36 36 36 36
29 31 33 35 36 38 38 38 37 37 36 36 36 36 36 36 36 35 35 35 34 35 35 34 35 34 34 35 35 35 35 36 36 36 36 37 36 36 36 36 36 36
30 31 32 34 36 37 37 37 36 35 35 35 35 35 35 35 35 35 35 35 35 35 35 35 35 35 35 35 35 35 35 36 36 36 36 36 36 36 36 36 36 35
31 31 32 33 34 35 36 35 35 35 34 34 35 34 34 35 35 35 35 35 35 35 35 35 35 35 35 35 35 35 35 35 36 36 36 35 36 36 35 35 34 34
31 31 30 30 31 32 34 34 34 34 34 34 33 34 35 35 35 35 35 35 35 35 35 35 35 35 36 36 35 35 34 35 35 35 35 34 34 34 33 32 32 31
31 31 29 28 29 30 32 33 33 33 33 32 33 33 34 34 34 34 33 34 34 35 35 35 35 36 36 36 35 35 34 35 35 34 34 33 32 31 31 31 30 30
30 31 28 27 28 30 31 32 32 32 31 31 32 33 33 32 32 32 33 33 34 34 34 35 36 37 37 36 35 34 33 33 33 34 33 32 30 30 30 30 29 28
31 30 28 26 27 29 30 30 30 30 30 31 31 31 32 31 31 32 33 33 33 33 34 35 36 37 36 35 34 33 31 32 33 33 32 30 30 29 29 28 27 27
32 30 28 28 28 28 29 29 28 28 29 30 31 31 30 30 30 32 33 32 33 33 34 35 36 35 34 32 32 31 32 34 34 33 30 30 30 28 27 26 26 27
31 30 29 29 29 28 28 27 27 28 29 30 30 30 29 29 30 31 31 32 32 33 34 34 33 32 31 31 31 32 32 33 33 32 30 29 29 28 27 26 26 27
30 29 30 30 29 27 26 26 27 29 30 30 29 28 28 29 29 29 29 29 30 30 31 32 31 30 30 30 31 31 31 31 30 29 28 27 27 27 26 26 26 27
30 30 30 30 29 27 26 27 28 29 30 29 28 27 28 28 27 27 27 27 27 28 29 29 30 28 28 28 28 27 27 27 28 27 27 27 26 25 24 23 24 26
31 30 30 30 28 26 26 27 29 30 31 29 28 27 27 27 27 27 27 27 26 27 27 29 28 26 27 29 28 27 26 27 28 28 29 28 26 24 23 23 24 26
32 30 30 30 28 26 28 29 29 30 30 29 29 29 29 30 30 29 29 28 28 28 28 29 28 26 27 28 28 27 26 27 27 27 27 27 25 24 24 23 24 26
31 30 30 30 29 30 31 31 30 29 29 28 29 30 31 32 31 30 30 30 30 31 30 31 30 28 28 29 29 29 28 27 26 26 25 25 25 25 25 24 24 25
30 30 30 30 31 34 34 33 31 29 28 28 29 29 30 30 29 29 30 30 31 32 31 31 31 30 29 30 29 29 30 29 28 27 26 26 26 26 25 23 24 24
31 31 31 32 34 36 36 33 31 29 28 28 28 29 28 27 26 27 28 28 29 29 30 31 30 29 29 29 28 29 30 31 30 29 29 27 26 26 25 23 24 24
Wind_Direction
229 229 230 231 232 234 235 234 235 235 236 236 237 239 241 243 242 239 239 240 240 241 243 243 243 243 243 242 239 239 240 242 242 241 238 240 242 242 242 242 240 238
230 230 230 231 233 235 236 235 236 236 237 239 240 242 243 243 242 241 241 242 241 242 244 243 243 244 243 243 241 240 241 242 243 241 239 240 243 242 243 243 241 240
230 231 231 232 234 236 237 237 237 238 239 241 242 243 243 244 244 243 243 243 242 243 243 242 244 244 244 244 242 241 242 243 243 242 240 240 242 242 243 243 242 241
231 232 232 234 236 237 238 238 238 239 239 241 243 243 244 244 244 244 244 243 242 243 243 242 243 244 244 243 241 240 242 243 244 243 240 241 242 242 242 243 242 242
234 234 235 236 237 238 238 237 239 240 240 242 243 243 244 244 243 243 243 242 241 242 242 242 242 243 243 242 240 240 241 242 243 242 239 240 242 242 242 242 241 241
236 237 237 237 238 237 237 238 240 241 241 242 243 243 244 244 244 243 242 241 241 240 240 241 241 241 241 240 239 239 240 240 242 240 238 239 241 241 242 242 241 241
238 238 239 239 239 239 239 240 241 241 242 242 242 243 244 243 243 243 242 241 240 240 240 240 240 240 240 239 237 237 238 239 240 240 238 239 240 241 241 241 240 240
241 241 242 242 242 242 241 242 243 243 243 242 242 243 244 243 243 243 242 241 240 240 240 239 239 240 239 237 235 235 236 237 238 238 237 238 239 238 239 239 239 239
243 244 244 243 243 243 243 243 244 244 243 242 243 244 243 243 243 243 242 240 239 240 240 239 239 239 238 237 235 235 235 236 237 236 236 236 236 237 239 239 239 238
245 245 244 243 243 243 244 245 245 245 244 243 243 244 243 243 243 243 241 240 238 238 239 239 239 238 237 236 236 236 236 236 237 237 236 236 236 237 238 238 238 237
245 246 244 243 244 245 246 246 245 245 244 243 243 243 243 243 243 241 240 238 237 238 238 238 238 238 237 236 236 237 237 237 238 238 237 237 237 238 239 239 238 237
247 246 245 245 246 247 247 247 246 246 245 244 243 242 242 243 242 241 239 238 238 238 238 238 239 239 238 238 238 237 237 237 239 239 239 239 239 240 240 240 240 240
253 250 248 248 248 249 249 248 248 247 246 245 244 243 242 242 241 241 240 239 239 239 239 238 239 239 239 239 239 238 238 238 239 239 239 240 241 241 242 243 243 244
261 258 254 252 251 250 250 249 248 247 246 246 245 243 242 242 241 241 240 240 240 239 240 240 239 239 239 239 239 239 240 240 239 239 239 240 242 243 245 246 247 247
268 264 259 255 252 251 251 250 249 248 246 245 243 243 243 242 242 242 241 240 240 240 240 240 239 239 239 239 238 238 239 240 239 239 240 240 241 243 245 245 246 246
271 270 264 259 255 253 252 251 249 248 246 244 243 242 242 241 241 240 239 239 239 239 239 238 238 239 240 240 239 239 240 241 242 240 239 240 241 242 243 244 244 246
273 272 269 264 259 256 253 251 248 246 245 244 243 242 241 240 239 239 239 239 238 238 238 238 239 239 240 240 241 241 240 241 242 241 240 240 241 241 242 245 246 247
272 271 271 269 263 257 254 251 247 245 242 241 241 240 239 238 237 237 238 238 238 237 238 238 240 241 240 241 241 241 240 239 239 239 239 239 240 240 242 245 247 247
271 269 271 270 263 257 254 250 245 243 240 239 238 237 236 235 236 237 237 237 237 237 238 238 239 240 239 238 238 238 239 239 238 237 237 238 239 239 239 241 243 243
273 270 271 269 262 255 252 247 243 241 239 237 236 234 233 233 234 235 236 236 236 236 237 238 238 237 235 234 235 235 234 234 235 235 237 239 240 238 236 238 241 240
274 273 272 268 259 253 248 244 241 240 237 234 231 230 230 231 231 232 233 233 233 234 236 237 237 235 232 231 234 234 232 231 233 235 237 239 238 236 235 237 241 240
277 274 271 265 257 250 246 242 239 237 235 231 227 227 228 229 229 229 230 230 230 231 233 235 235 233 232 232 231 231 230 230 232 233 233 232 231 230 232 234 238 239
279 273 268 262 254 246 244 243 240 237 235 231 226 223 224 225 226 227 227 228 229 229 232 234 233 230 231 229 226 226 227 225 226 228 226 225 225 226 228 231 233 235
280 273 267 261 252 247 247 245 241 238 236 233 229 226 225 225 225 227 228 229 230 230 232 235 234 231 231 230 227 228 230 228 227 226 224 222 222 221 223 225 228 230
282 275 268 260 253 252 251 247 242 239 236 234 232 231 230 228 226 227 230 230 231 231 232 234 235 231 228 227 227 228 230 231 230 227 224 221 219 216 215 218 223 226
284 277 270 263 258 256 253 248 244 240 235 233 232 231 232 230 227 226 227 228 228 228 229 230 232 230 228 229 233 233 231 230 228 224 222 219 216 215 214 215 219 223